• In Romania
  • List of Countries
  • For 7 days
  • Water Temperature
  • Satellite Maps
  • Weather Map
  • Weather Widgets
  • user-avatar
    Login

    Hourly Weather Solden

    Today, 20 November, Monday

    Time Temperature Precipitation Wind Pressure Humidity
    00:00 -13°C° 0 mm 2 mps 578 mmHg 79%
    01:00 -13°C° 0 mm 2 mps 578 mmHg 80%
    02:00 -13°C° 0 mm 2 mps 578 mmHg 80%
    03:00 -14°C° 0 mm 2 mps 578 mmHg 79%
    04:00 -14°C° 0 mm 2 mps 578 mmHg 78%
    05:00 -14°C° 0 mm 2 mps 578 mmHg 75%
    06:00 -14°C° 0 mm 2 mps 578 mmHg 72%
    07:00 -13°C° 0 mm 3 mps 578 mmHg 73%
    08:00 -10°C° 0 mm 2 mps 579 mmHg 68%
    09:00 -8°C° 0 mm 2 mps 580 mmHg 63%
    10:00 -6°C° 0 mm 2 mps 581 mmHg 58%
    11:00 -5°C° 0 mm 2 mps 581 mmHg 55%
    12:00 -2°C° 0 mm 1 mps 582 mmHg 52%
    13:00 -1°C° 0 mm 1 mps 582 mmHg 49%
    14:00 -1°C° 0.1 mm 1 mps 581 mmHg 56%
    15:00 -2°C° 0.1 mm 1 mps 581 mmHg 63%
    16:00 -3°C° 0.1 mm 1 mps 580 mmHg 70%
    17:00 -4°C° 0.2 mm 1 mps 580 mmHg 72%
    18:00 -7°C° 0.2 mm 2 mps 579 mmHg 75%
    19:00 -8°C° 0.2 mm 2 mps 579 mmHg 78%
    20:00 -8°C° 0 mm 2 mps 579 mmHg 77%
    21:00 -8°C° 0 mm 2 mps 579 mmHg 77%
    22:00 -8°C° 0 mm 2 mps 579 mmHg 77%
    23:00 -8°C° 0 mm 2 mps 579 mmHg 76%

    Tomorrow, 21 November, Tuesday

    Time Temperature Precipitation Wind Pressure Humidity
    00:00 -8°C° 0 mm 2 mps 579 mmHg 76%
    01:00 -7°C° 0 mm 2 mps 579 mmHg 76%
    02:00 -7°C° 0 mm 2 mps 579 mmHg 77%
    03:00 -7°C° 0 mm 2 mps 579 mmHg 77%
    04:00 -7°C° 0 mm 2 mps 579 mmHg 78%
    05:00 -7°C° 0.1 mm 2 mps 579 mmHg 79%
    06:00 -6°C° 0.1 mm 2 mps 579 mmHg 79%
    07:00 -6°C° 0.1 mm 2 mps 580 mmHg 80%
    08:00 -4°C° 0.1 mm 2 mps 580 mmHg 78%
    09:00 -3°C° 0.1 mm 2 mps 581 mmHg 76%
    10:00 +1°C° 0.1 mm 1 mps 582 mmHg 74%
    11:00 +1°C° 0 mm 1 mps 583 mmHg 74%
    12:00 +2°C° 0 mm 1 mps 583 mmHg 73%
    13:00 +3°C° 0 mm 1 mps 583 mmHg 73%
    14:00 +2°C° 0.1 mm 1 mps 582 mmHg 76%
    15:00 +1°C° 0.1 mm 1 mps 582 mmHg 79%
    16:00 0°C° 0.1 mm 1 mps 581 mmHg 82%
    17:00 -1°C° 0 mm 1 mps 581 mmHg 83%
    18:00 -2°C° 0 mm 1 mps 581 mmHg 84%
    19:00 -3°C° 0 mm 1 mps 580 mmHg 85%
    20:00 -3°C° 0 mm 1 mps 580 mmHg 83%
    21:00 -3°C° 0 mm 1 mps 580 mmHg 82%
    22:00 -3°C° 0 mm 1 mps 580 mmHg 81%
    23:00 -3°C° 0 mm 1 mps 580 mmHg 80%

    Day after tomorrow, 22 November, Wednesday

    Time Temperature Precipitation Wind Pressure Humidity
    00:00 -3°C° 0 mm 1 mps 580 mmHg 79%
    01:00 -3°C° 0 mm 1 mps 580 mmHg 77%
    02:00 -3°C° 0 mm 1 mps 580 mmHg 77%
    03:00 -3°C° 0 mm 1 mps 580 mmHg 76%
    04:00 -3°C° 0 mm 1 mps 580 mmHg 76%
    05:00 -4°C° 0 mm 1 mps 580 mmHg 76%
    06:00 -4°C° 0 mm 1 mps 580 mmHg 75%
    07:00 -4°C° 0 mm 1 mps 580 mmHg 75%
    08:00 -2°C° 0 mm 1 mps 581 mmHg 73%
    09:00 0°C° 0 mm 1 mps 582 mmHg 71%
    10:00 +1°C° 0 mm 1 mps 583 mmHg 70%
    11:00 +1°C° 0 mm 2 mps 583 mmHg 72%
    12:00 +2°C° 0 mm 2 mps 583 mmHg 74%
    13:00 +2°C° 0 mm 2 mps 583 mmHg 76%
    14:00 +1°C° 0 mm 2 mps 582 mmHg 79%
    15:00 -1°C° 0 mm 2 mps 581 mmHg 81%
    16:00 -2°C° 0 mm 2 mps 581 mmHg 84%
    17:00 -3°C° 0 mm 2 mps 580 mmHg 85%
    18:00 -4°C° 0 mm 2 mps 580 mmHg 86%
    19:00 -5°C° 0 mm 2 mps 580 mmHg 87%
    20:00 -5°C° 0 mm 2 mps 580 mmHg 86%
    21:00 -5°C° 0 mm 2 mps 580 mmHg 85%
    22:00 -6°C° 0 mm 2 mps 580 mmHg 84%
    23:00 -6°C° 0 mm 2 mps 580 mmHg 84%

    23 November, Thursday

    Time Temperature Precipitation Wind Pressure Humidity
    00:00 -6°C° 0 mm 2 mps 580 mmHg 83%
    01:00 -6°C° 0 mm 2 mps 580 mmHg 83%
    02:00 -6°C° 0 mm 2 mps 580 mmHg 83%
    03:00 -6°C° 0 mm 2 mps 580 mmHg 82%
    04:00 -6°C° 0 mm 2 mps 579 mmHg 81%
    05:00 -7°C° 0 mm 2 mps 580 mmHg 79%
    06:00 -6°C° 0 mm 1 mps 580 mmHg 78%
    07:00 -6°C° 0 mm 1 mps 580 mmHg 76%
    08:00 -3°C° 0 mm 1 mps 581 mmHg 73%
    09:00 -1°C° 0 mm 1 mps 582 mmHg 69%
    10:00 0°C° 0 mm 0 mps 583 mmHg 66%
    11:00 +1°C° 0 mm 0 mps 583 mmHg 67%
    12:00 +2°C° 0 mm 0 mps 584 mmHg 67%
    13:00 +3°C° 0 mm 0 mps 584 mmHg 68%
    14:00 +2°C° 0 mm 0 mps 584 mmHg 69%
    15:00 0°C° 0 mm 0 mps 583 mmHg 71%
    16:00 -1°C° 0 mm 0 mps 583 mmHg 72%
    17:00 -2°C° 0 mm 0 mps 583 mmHg 72%
    18:00 -2°C° 0 mm 1 mps 583 mmHg 73%
    19:00 -2°C° 0 mm 1 mps 583 mmHg 74%
    20:00 -3°C° 0 mm 1 mps 583 mmHg 73%
    21:00 -3°C° 0 mm 1 mps 583 mmHg 73%
    22:00 -3°C° 0 mm 1 mps 583 mmHg 72%
    23:00 -3°C° 0 mm 1 mps 583 mmHg 73%

    24 November, Friday

    Time Temperature Precipitation Wind Pressure Humidity
    00:00 -4°C° 0 mm 1 mps 583 mmHg 73%
    01:00 -4°C° 0 mm 1 mps 583 mmHg 73%
    02:00 -6°C° 0 mm 2 mps 583 mmHg 72%
    03:00 -6°C° 0 mm 2 mps 583 mmHg 71%
    04:00 -6°C° 0 mm 2 mps 583 mmHg 71%
    05:00 -6°C° 0 mm 2 mps 583 mmHg 69%
    06:00 -6°C° 0 mm 2 mps 583 mmHg 68%
    07:00 -6°C° 0 mm 2 mps 583 mmHg 67%
    08:00 -4°C° 0 mm 2 mps 584 mmHg 65%
    09:00 -1°C° 0 mm 1 mps 584 mmHg 63%
    10:00 +1°C° 0 mm 1 mps 585 mmHg 62%
    11:00 +2°C° 0 mm 1 mps 585 mmHg 62%
    12:00 +3°C° 0 mm 1 mps 585 mmHg 62%
    13:00 +4°C° 0 mm 1 mps 585 mmHg 62%
    14:00 +2°C° 0 mm 1 mps 585 mmHg 64%
    15:00 +1°C° 0 mm 1 mps 584 mmHg 66%
    16:00 0°C° 0 mm 1 mps 583 mmHg 68%
    17:00 -1°C° 0 mm 1 mps 583 mmHg 69%
    18:00 -2°C° 0 mm 1 mps 583 mmHg 70%
    19:00 -3°C° 0 mm 1 mps 583 mmHg 70%
    20:00 -2°C° 0 mm 1 mps 583 mmHg 70%
    21:00 -2°C° 0 mm 1 mps 583 mmHg 69%
    22:00 -2°C° 0 mm 1 mps 583 mmHg 68%
    23:00 -4°C° 0 mm 2 mps 583 mmHg 69%

    25 November, Saturday

    Time Temperature Precipitation Wind Pressure Humidity
    00:00 -4°C° 0 mm 2 mps 583 mmHg 69%
    01:00 -4°C° 0 mm 2 mps 583 mmHg 69%
    02:00 -4°C° 0 mm 2 mps 583 mmHg 70%
    03:00 -4°C° 0 mm 2 mps 582 mmHg 71%
    04:00 -4°C° 0 mm 2 mps 582 mmHg 72%
    05:00 -5°C° 0 mm 2 mps 582 mmHg 73%
    06:00 -5°C° 0 mm 2 mps 582 mmHg 75%
    07:00 -5°C° 0 mm 2 mps 582 mmHg 76%
    08:00 -4°C° 0 mm 2 mps 583 mmHg 75%
    09:00 -2°C° 0 mm 2 mps 583 mmHg 74%
    10:00 -1°C° 0 mm 2 mps 584 mmHg 73%
    11:00 +1°C° 0 mm 2 mps 584 mmHg 75%
    12:00 +1°C° 0 mm 2 mps 584 mmHg 76%
    13:00 +2°C° 0 mm 2 mps 584 mmHg 78%
    14:00 +1°C° 0 mm 2 mps 583 mmHg 81%
    15:00 -1°C° 0 mm 2 mps 583 mmHg 84%
    16:00 -1°C° 0 mm 2 mps 583 mmHg 87%
    17:00 0°C° 0 mm 1 mps 583 mmHg 89%
    18:00 0°C° 0 mm 1 mps 583 mmHg 90%
    19:00 -1°C° 0 mm 1 mps 582 mmHg 92%
    20:00 -1°C° 0 mm 1 mps 583 mmHg 92%
    21:00 -1°C° 0 mm 1 mps 583 mmHg 93%
    22:00 -1°C° 0 mm 1 mps 583 mmHg 93%
    23:00 -1°C° 0.1 mm 1 mps 583 mmHg 93%
    Show more